Alexandria, LA

9:42 AM CDT on May 20, 2018 (GMT -0500)
Alexandria International

Weather History for KAEX - December, 2012

Change the Weather History Date:

Thursday, December 6, 2012

  Actual Average Record
Temperature  
Mean Temperature 58 °F 51 °F  
Max Temperature 64 °F 62 °F 83 °F (1906)
Min Temperature 51 °F 41 °F 22 °F (1895)
Degree Days  
Heating Degree Days 7 14  
Month to date heating degree days 10 81  
Since 1 July heating degree days 377 406  
Growing Degree Days 7 (Base 50)    
Moisture  
Dew Point 55 °F    
Average Humidity 92    
Maximum Humidity 100    
Minimum Humidity 84    
Precipitation  
Precipitation 0.00 in 0.25 in 5.58 in (1971)
Month to date precipitation 0.32 1.55  
Year to date precipitation 48.29 51.35  
Snow  
Snow 0.00 in - 0.00 in ()
Month to date snowfall 0.0  
Since 1 July snowfall 0.0  
Snow Depth 0.00 in    
Sea Level Pressure  
Sea Level Pressure 29.97 in    
Wind  
Wind Speed 2 mph (NE)    
Max Wind Speed 7 mph    
Max Gust Speed 10 mph    
Visibility 5 miles    
Events Fog    
T = Trace of Precipitation, MM = Missing Value Source: NWS Daily Summary

Daily Weather History Graph

Daily Weather History Graph

Search for Another Location

Airport or City:

Astronomy

Dec. 06, 2012 Rise Set
Actual Time 6:55 AM CST 5:07 PM CST
Civil Twilight 6:29 AM CST 5:33 PM CST
Nautical Twilight 5:58 AM CST 6:03 PM CST
Astronomical Twilight 5:29 AM CST 6:33 PM CST
Moon No Moon Rise 12:10 PM CST (12/6)
Length of Visible Light 11h 04m
Length of Day
10h 11m
Waning Gibbous, 49% of the Moon is Illuminated
Dec 6
Waning Gibbous
Dec 13
New
Dec 19
First Quarter
Dec 28
Full
Jan 4
Last Quarter

Hourly Weather History & Observations

Time (CST) Temp. Dew Point Humidity Pressure Visibility Wind Dir Wind Speed Gust Speed Precip Events Conditions
12:41 AM 55.4 °F 55.4 °F 100% 30.04 in 6.0 mi NE 3.5 mph - N/A   Overcast
12:53 AM 55.9 °F 55.0 °F 97% 30.04 in 5.0 mi NE 4.6 mph - N/A   Overcast
1:53 AM 55.9 °F 55.0 °F 97% 30.04 in 7.0 mi NNE 3.5 mph - N/A   Overcast
2:53 AM 55.9 °F 54.0 °F 93% 30.05 in 5.0 mi NNW 4.6 mph - N/A   Overcast
3:53 AM 55.9 °F 54.0 °F 93% 30.03 in 7.0 mi Calm Calm - N/A   Overcast
4:53 AM 55.9 °F 54.0 °F 93% 30.02 in 7.0 mi NNW 4.6 mph - N/A   Overcast
5:53 AM 55.9 °F 55.0 °F 97% 30.02 in 2.5 mi North 4.6 mph - N/A   Overcast
6:53 AM 55.9 °F 55.0 °F 97% 30.03 in 2.0 mi NNE 3.5 mph - N/A   Overcast
7:36 AM 55.4 °F 55.4 °F 100% 30.03 in 1.5 mi Calm Calm - N/A   Overcast
7:53 AM 55.9 °F 55.0 °F 97% 30.04 in 2.5 mi NNE 3.5 mph - N/A   Overcast
8:00 AM 55.4 °F 55.4 °F 100% 30.03 in 4.0 mi NE 3.5 mph - N/A   Overcast
8:22 AM 55.4 °F 55.4 °F 100% 30.03 in 1.8 mi NNE 3.5 mph - N/A   Overcast
8:41 AM 57.2 °F 55.4 °F 94% 30.02 in 2.5 mi NE 3.5 mph - N/A   Overcast
8:48 AM 57.2 °F 55.4 °F 94% 30.02 in 5.0 mi NE 3.5 mph - N/A   Overcast
8:53 AM 57.0 °F 55.0 °F 93% 30.04 in 2.0 mi NNE 4.6 mph - N/A   Overcast
9:00 AM 57.2 °F 55.4 °F 94% 30.02 in 4.0 mi Calm Calm - N/A   Overcast
9:53 AM 59.0 °F 55.9 °F 90% 30.04 in 9.0 mi Calm Calm - N/A   Overcast
10:11 AM 60.8 °F 55.4 °F 82% 30.02 in 10.0 mi Calm Calm - N/A   Overcast
10:53 AM 60.1 °F 55.9 °F 86% 30.02 in 10.0 mi Calm Calm - N/A   Overcast
11:53 AM 62.1 °F 57.9 °F 86% 30.00 in 9.0 mi SE 3.5 mph - N/A   Overcast
12:29 PM 62.6 °F 57.2 °F 82% 29.97 in 9.0 mi Calm Calm - N/A   Overcast
12:36 PM 62.6 °F 57.2 °F 82% 29.97 in 9.0 mi Calm Calm - N/A   Overcast
12:53 PM 62.1 °F 57.9 °F 86% 29.98 in 9.0 mi SSW 3.5 mph - N/A   Overcast
1:00 PM 62.6 °F 59.0 °F 88% 29.97 in 9.0 mi Calm Calm - N/A   Overcast
1:53 PM 63.0 °F 59.0 °F 87% 29.96 in 10.0 mi Calm Calm - N/A   Overcast
2:53 PM 63.0 °F 59.0 °F 87% 29.95 in 9.0 mi Calm Calm - N/A   Overcast
3:20 PM 62.6 °F 59.0 °F 88% 29.94 in 9.0 mi Calm Calm - N/A   Overcast
3:29 PM 62.6 °F 59.0 °F 88% 29.94 in 9.0 mi SSW 4.6 mph - N/A   Overcast
3:46 PM 62.6 °F 59.0 °F 88% 29.93 in 9.0 mi Calm Calm - N/A   Overcast
3:53 PM 63.0 °F 59.0 °F 87% 29.94 in 8.0 mi SSW 4.6 mph - N/A   Overcast
4:53 PM 62.1 °F 59.0 °F 90% 29.94 in 8.0 mi Calm Calm - N/A   Overcast
5:53 PM 62.1 °F 59.0 °F 90% 29.94 in 9.0 mi Calm Calm - N/A   Overcast
6:04 PM 60.8 °F 59.0 °F 94% 29.93 in 9.0 mi West 3.5 mph - N/A   Mostly Cloudy
6:53 PM 57.0 °F 55.9 °F 96% 29.94 in 5.0 mi Calm Calm - N/A   Clear
7:53 PM 57.0 °F 57.0 °F 100% 29.95 in 10.0 mi Calm Calm - N/A   Clear
7:57 PM 55.4 °F 55.4 °F 100% 29.94 in 0.8 mi Calm Calm - N/A   Mist
8:07 PM 55.4 °F 55.4 °F 100% 29.94 in 0.2 mi Calm Calm - N/A Fog Fog
8:26 PM 53.6 °F 53.6 °F 100% 29.93 in 10.0 mi Calm Calm - N/A   Clear
8:53 PM 52.0 °F 52.0 °F 100% 29.95 in 10.0 mi Calm Calm - N/A   Clear
9:00 PM 51.8 °F 51.8 °F 100% 29.94 in 0.2 mi Calm Calm - N/A Fog Fog
9:24 PM 51.8 °F 51.8 °F 100% 29.94 in 1.0 mi SE 3.5 mph - N/A   Mostly Cloudy
9:37 PM 53.6 °F 53.6 °F 100% 29.94 in 1.0 mi Calm Calm - 0.01 in   Overcast
9:53 PM 53.1 °F 52.0 °F 96% 29.95 in 1.0 mi Calm Calm - 0.01 in   Overcast
10:01 PM 53.6 °F 53.6 °F 100% 29.94 in 0.8 mi Calm Calm - N/A   Overcast
10:07 PM 53.6 °F 53.6 °F 100% 29.94 in 1.8 mi Calm Calm - N/A   Overcast
10:09 PM 51.8 °F 51.8 °F 100% 29.94 in 3.0 mi Calm Calm - N/A   Overcast
10:16 PM 51.8 °F 51.8 °F 100% 29.94 in 1.5 mi Calm Calm - N/A   Overcast
10:24 PM 51.8 °F 51.8 °F 100% 29.94 in 0.5 mi Calm Calm - N/A Fog Fog
10:40 PM 51.8 °F 51.8 °F 100% 29.93 in 0.2 mi Calm Calm - N/A Fog Fog
10:53 PM 53.1 °F 53.1 °F 100% 29.94 in 0.5 mi Calm Calm - N/A Fog Fog
11:11 PM 53.6 °F 53.6 °F 100% 29.93 in 1.5 mi SE 4.6 mph - N/A   Overcast
11:22 PM 53.6 °F 53.6 °F 100% 29.92 in 1.2 mi ESE 4.6 mph - N/A   Overcast
11:27 PM 53.6 °F 53.6 °F 100% 29.92 in 0.2 mi SE 3.5 mph - N/A Fog Fog
11:53 PM 53.1 °F 53.1 °F 100% 29.93 in 0.2 mi Calm Calm - N/A Fog Fog